KB8TTR Weather Reports


time (UTC)temp
F
wind
direction
speed
knots
gust
knots
rain 1hr
in
rain 24hr
in
rain mn
in
humidity
%
barometer
mb
20260831222832 78 95 0.0 0.0 0.00 0.00 0.00 80 1018.9
20260831222327 78 105 0.0 0.0 0.00 0.00 0.00 82 1018.8
20260831221827 78 106 0.0 0.0 0.00 0.00 0.00 82 1019.0
20260831221323 79 107 0.0 0.0 0.00 0.00 0.00 80 1018.9
20260831220818 80 102 0.0 0.0 0.00 0.00 0.00 80 1019.2
20260831220313 81 102 0.0 0.0 0.00 0.00 0.00 79 1019.2
20260831215808 82 123 0.0 0.0 0.00 0.00 0.00 75 1019.2
20260831215306 82 97 0.0 0.0 0.00 0.00 0.00 72 1019.1
20260831214800 83 99 0.9 0.9 0.00 0.00 0.00 69 1018.8
20260831214257 83 78 0.9 1.7 0.00 0.00 0.00 66 1018.5
20260831213752 84 99 0.0 0.9 0.00 0.00 0.00 66 1018.4
20260831213249 84 70 0.0 0.0 0.00 0.00 0.00 64 1018.2
20260831212743 84 95 0.0 0.9 0.00 0.00 0.00 64 1017.9
20260831212240 85 97 0.0 0.9 0.00 0.00 0.00 64 1018.0
20260831211738 85 97 0.0 0.9 0.00 0.00 0.00 65 1017.8
20260831211234 85 90 0.0 0.0 0.00 0.00 0.00 66 1017.8
20260831210728 85 90 0.9 1.7 0.00 0.00 0.00 66 1017.8
20260831210225 85 94 0.9 1.7 0.00 0.00 0.00 67 1017.7
20260831205724 85 93 0.9 0.9 0.00 0.00 0.00 67 1017.5
20260831205221 86 92 0.9 0.9 0.00 0.00 0.00 65 1017.7
20260831204720 86 101 1.7 1.7 0.00 0.00 0.00 64 1017.6
20260831204220 86 98 0.0 0.9 0.00 0.00 0.00 64 1017.7
20260831203713 86 90 1.7 1.7 0.00 0.00 0.00 63 1017.8
20260831203208 86 55 0.9 1.7 0.00 0.00 0.00 63 1017.6
20260831202706 86 262 1.7 2.6 0.00 0.00 0.00 63 1017.5
20260831202201 86 96 0.0 0.9 0.00 0.00 0.00 65 1017.7
20260831201700 85 87 0.0 0.0 0.00 0.00 0.00 67 1017.7
20260831201155 85 101 0.0 0.9 0.00 0.00 0.00 67 1017.5
20260831200651 85 95 0.9 0.9 0.00 0.00 0.00 66 1017.6
20260831200150 85 95 0.0 0.9 0.00 0.00 0.00 66 1017.4
20260831195646 85 127 0.9 0.9 0.00 0.00 0.00 65 1017.5
20260831195141 85 94 1.7 1.7 0.00 0.00 0.00 64 1017.5
20260831194636 86 88 0.9 0.9 0.00 0.00 0.00 67 1017.6
20260831194131 86 93 0.9 1.7 0.00 0.00 0.00 66 1017.9
20260831193625 86 93 0.9 0.9 0.00 0.00 0.00 66 1017.9
20260831193121 86 82 0.9 0.9 0.00 0.00 0.00 66 1017.8
20260831192616 85 99 0.0 0.0 0.00 0.00 0.00 69 1018.1
20260831192112 85 82 0.9 0.9 0.00 0.00 0.00 68 1018.2
20260831191607 85 97 0.0 0.9 0.00 0.00 0.00 67 1018.3
20260831191103 85 71 0.9 0.9 0.00 0.00 0.00 67 1018.0
20260831190558 84 93 0.9 0.9 0.00 0.00 0.00 69 1018.2
20260831190056 84 96 0.0 0.0 0.00 0.00 0.00 67 1018.0
20260831185553 85 57 0.0 1.7 0.00 0.00 0.00 67 1017.8
20260831185048 84 321 0.9 1.7 0.00 0.00 0.00 66 1017.7
20260831184547 84 102 0.0 0.9 0.00 0.00 0.00 69 1017.5
20260831184043 83 101 0.9 0.9 0.00 0.00 0.00 69 1017.8
20260831183543 83 100 1.7 1.7 0.00 0.00 0.00 67 1017.9
20260831183043 84 79 0.9 1.7 0.00 0.00 0.00 68 1018.2
20260831182542 84 100 0.0 0.0 0.00 0.00 0.00 66 1018.3
20260831182039 85 93 0.0 0.0 0.00 0.00 0.00 65 1018.3
20260831181538 85 101 0.0 0.9 0.00 0.00 0.00 65 1018.5
20260831181038 84 82 0.9 1.7 0.00 0.00 0.00 66 1018.4
20260831180533 83 104 0.0 0.9 0.00 0.00 0.00 68 1018.6
20260831180028 83 101 0.0 0.9 0.00 0.00 0.00 67 1018.8
20260831175523 83 101 0.0 0.0 0.00 0.00 0.00 69 1018.7
20260831175021 83 97 0.0 0.0 0.00 0.00 0.00 67 1019.1
20260831174521 83 12 0.9 1.7 0.00 0.00 0.00 67 1019.0
20260831174020 84 98 0.0 0.0 0.00 0.00 0.00 66 1019.2
20260831173519 84 99 0.0 0.0 0.00 0.00 0.00 66 1019.1
20260831173015 84 100 0.9 0.9 0.00 0.00 0.00 66 1019.1
20260831172510 84 100 0.0 0.9 0.00 0.00 0.00 66 1019.0
20260831172005 84 98 0.0 0.9 0.00 0.00 0.00 67 1019.2
20260831171500 83 100 0.0 0.9 0.00 0.00 0.00 68 1019.3
20260831170957 83 98 0.0 0.0 0.00 0.00 0.00 68 1019.3
20260831170453 83 148 0.9 1.7 0.00 0.00 0.00 70 1019.3
20260831165950 82 91 0.0 0.9 0.00 0.00 0.00 70 1019.4
20260831165445 83 91 0.9 0.9 0.00 0.00 0.00 68 1019.4
20260831164942 83 92 0.0 0.9 0.00 0.00 0.00 68 1019.6
20260831164439 83 99 0.9 0.9 0.00 0.00 0.00 67 1019.4
20260831163938 83 101 0.0 0.0 0.00 0.00 0.00 68 1019.5
20260831163434 83 98 0.0 0.0 0.00 0.00 0.00 68 1019.6
20260831162932 83 97 0.0 0.9 0.00 0.00 0.00 67 1019.4
20260831162428 84 91 0.9 1.7 0.00 0.00 0.00 66 1019.3
20260831161926 84 95 0.9 0.9 0.00 0.00 0.00 66 1019.2
20260831161423 84 55 0.9 1.7 0.00 0.00 0.00 65 1019.3
20260831160918 84 96 0.9 1.7 0.00 0.00 0.00 64 1019.2
20260831160413 84 100 0.0 0.9 0.00 0.00 0.00 66 1019.2
20260831155908 84 65 1.7 1.7 0.00 0.00 0.00 64 1019.3
20260831155408 84 106 0.9 0.9 0.00 0.00 0.00 67 1019.3
20260831154909 84 75 0.9 1.7 0.00 0.00 0.00 65 1019.2
20260831154405 85 89 1.7 1.7 0.00 0.00 0.00 61 1019.1
20260831153903 84 100 0.9 0.9 0.00 0.00 0.00 66 1019.2
20260831153359 85 97 0.9 0.9 0.00 0.00 0.00 66 1019.2
20260831152855 85 6 2.6 2.6 0.00 0.00 0.00 66 1019.3
20260831152351 85 101 0.0 0.0 0.00 0.00 0.00 67 1019.3
20260831151846 84 93 0.0 0.0 0.00 0.00 0.00 69 1019.1
20260831151345 84 56 0.0 0.0 0.00 0.00 0.00 68 1019.1
20260831150840 82 85 0.0 0.0 0.00 0.00 0.00 70 1019.1
20260831150336 82 102 0.0 0.0 0.00 0.00 0.00 73 1019.3
20260831145835 81 120 0.0 0.0 0.00 0.00 0.00 73 1019.2
20260831145332 81 100 0.0 0.0 0.00 0.00 0.00 74 1019.4
20260831144827 81 72 0.0 0.0 0.00 0.00 0.00 73 1019.5
20260831144323 81 108 0.0 0.0 0.00 0.00 0.00 74 1019.3
20260831143822 81 88 0.0 0.0 0.00 0.00 0.00 74 1019.4
20260831143318 80 102 0.0 0.0 0.00 0.00 0.00 75 1019.1
20260831142813 80 101 0.0 0.0 0.00 0.00 0.00 73 1019.0
20260831142308 80 115 0.0 0.0 0.00 0.00 0.00 73 1019.1
20260831141808 80 99 0.0 0.0 0.00 0.00 0.00 74 1019.1
20260831141304 79 99 0.0 0.0 0.00 0.00 0.00 76 1019.1
20260831140804 79 92 0.0 0.0 0.00 0.00 0.00 76 1018.9
20260831140258 79 117 0.0 0.0 0.00 0.00 0.00 75 1018.6
20260831135755 79 97 0.0 0.0 0.00 0.00 0.00 76 1018.9
20260831135252 79 100 0.0 0.0 0.00 0.00 0.00 75 1018.9
20260831134747 78 101 0.0 0.0 0.00 0.00 0.00 77 1018.8
20260831134244 77 108 0.0 0.0 0.00 0.00 0.00 79 1018.6
20260831133742 77 92 0.0 0.0 0.00 0.00 0.00 80 1018.8
20260831133242 76 100 0.0 0.0 0.00 0.00 0.00 80 1018.7
20260831132738 76 102 0.0 0.0 0.00 0.00 0.00 80 1018.7
20260831132233 76 98 0.0 0.0 0.00 0.00 0.00 80 1018.9
20260831131732 76 99 0.0 0.0 0.00 0.00 0.00 80 1018.8
20260831131229 75 102 0.0 0.0 0.00 0.00 0.00 81 1018.7
20260831130724 75 109 0.0 0.0 0.00 0.00 0.00 82 1018.7
20260831130220 74 103 0.0 0.0 0.00 0.00 0.00 83 1018.9
20260831125718 74 99 0.0 0.0 0.00 0.00 0.00 83 1018.7
20260831125215 74 106 0.0 0.0 0.00 0.00 0.00 83 1018.6
20260831124714 74 107 0.0 0.0 0.00 0.00 0.00 84 1018.5
20260831124211 74 105 0.0 0.0 0.00 0.00 0.00 83 1018.7
20260831123711 74 102 0.0 0.0 0.00 0.00 0.00 84 1018.7
20260831123210 73 109 0.0 0.0 0.00 0.00 0.00 84 1018.8
20260831122709 73 91 0.0 0.0 0.00 0.00 0.00 85 1018.4
20260831122206 73 102 0.0 0.0 0.00 0.00 0.00 85 1018.6
20260831121704 73 104 0.0 0.0 0.00 0.00 0.00 86 1018.8
20260831121201 73 100 0.0 0.0 0.00 0.00 0.00 86 1018.8
20260831120656 73 95 0.0 0.0 0.00 0.00 0.00 86 1018.8
20260831120151 72 69 0.0 0.0 0.00 0.00 0.00 87 1018.6
20260831115647 72 102 0.0 0.0 0.00 0.00 0.00 87 1018.6
20260831115142 72 100 0.0 0.0 0.00 0.00 0.00 87 1018.7
20260831114641 72 103 0.0 0.0 0.00 0.00 0.00 87 1018.8
20260831114136 72 103 0.0 0.0 0.00 0.00 0.00 87 1018.6
20260831113636 72 103 0.0 0.0 0.00 0.00 0.00 87 1018.5
20260831113131 72 95 0.0 0.0 0.00 0.00 0.00 87 1018.6
20260831112630 72 105 0.0 0.0 0.00 0.00 0.00 87 1018.7
20260831112125 72 99 0.0 0.0 0.00 0.00 0.00 88 1018.7
20260831111621 72 98 0.0 0.0 0.00 0.00 0.00 87 1018.5
20260831111117 72 100 0.0 0.0 0.00 0.00 0.00 87 1018.7
20260831110613 72 110 0.0 0.0 0.00 0.00 0.00 87 1018.5
20260831110108 72 102 0.0 0.0 0.00 0.00 0.00 87 1018.5
20260831105607 72 102 0.0 0.0 0.00 0.00 0.00 87 1018.6
20260831105102 72 102 0.0 0.0 0.00 0.00 0.00 87 1018.5
20260831104557 72 103 0.0 0.0 0.00 0.00 0.00 87 1018.6
20260831104053 72 103 0.0 0.0 0.00 0.00 0.00 86 1018.4
20260831103549 72 99 0.0 0.0 0.00 0.00 0.00 87 1018.6
20260831103045 72 92 0.0 0.0 0.00 0.00 0.00 87 1018.8
20260831102544 72 95 0.0 0.0 0.00 0.00 0.00 87 1018.5
20260831102039 72 95 0.0 0.0 0.00 0.00 0.00 87 1018.3
20260831101534 72 94 0.0 0.0 0.00 0.00 0.00 87 1018.2
20260831101031 72 89 0.0 0.0 0.00 0.00 0.00 87 1018.2
20260831100526 72 91 0.0 0.0 0.00 0.00 0.00 87 1018.1
20260831100022 72 107 0.0 0.0 0.00 0.00 0.00 87 1018.0
20260831095520 72 106 0.0 0.0 0.00 0.00 0.00 87 1017.9
20260831095015 72 101 0.0 0.0 0.00 0.00 0.00 87 1018.2
20260831094511 73 93 0.0 0.0 0.00 0.00 0.00 87 1018.1
20260831094007 73 99 0.0 0.0 0.00 0.00 0.00 87 1018.3
20260831093507 73 93 0.0 0.0 0.00 0.00 0.00 87 1018.0
20260831093004 73 103 0.0 0.0 0.00 0.00 0.00 87 1017.9
20260831092459 73 109 0.0 0.0 0.00 0.00 0.00 87 1017.8
20260831091954 73 97 0.0 0.0 0.00 0.00 0.00 87 1017.8
20260831091449 73 92 0.0 0.0 0.00 0.00 0.00 87 1017.9
20260831090944 73 89 0.0 0.0 0.00 0.00 0.00 87 1017.9
20260831090440 73 92 0.0 0.0 0.00 0.00 0.00 87 1018.0
20260831085936 73 105 0.0 0.0 0.00 0.00 0.00 87 1018.2
20260831085431 73 98 0.0 0.0 0.00 0.00 0.00 87 1017.9
20260831084931 73 101 0.0 0.0 0.00 0.00 0.00 87 1018.0
20260831084427 73 101 0.0 0.0 0.00 0.00 0.00 87 1018.2
20260831083923 73 100 0.0 0.0 0.00 0.00 0.00 87 1018.1
20260831083418 73 103 0.0 0.0 0.00 0.00 0.00 87 1018.1
20260831082917 73 99 0.0 0.0 0.00 0.00 0.00 87 1018.3
20260831082412 73 105 0.0 0.0 0.00 0.00 0.00 87 1018.3
20260831081908 73 100 0.0 0.0 0.00 0.00 0.00 87 1018.2
20260831081403 73 99 0.0 0.0 0.00 0.00 0.00 87 1018.3
20260831080859 73 104 0.0 0.0 0.00 0.00 0.00 87 1018.4
20260831080354 73 109 0.0 0.0 0.00 0.00 0.00 87 1018.5
20260831075850 73 104 0.0 0.0 0.00 0.00 0.00 88 1018.5
20260831075349 73 101 0.0 0.0 0.00 0.00 0.00 88 1018.5
20260831074845 73 102 0.0 0.0 0.00 0.00 0.00 88 1018.4
20260831074344 73 102 0.0 0.0 0.00 0.00 0.00 88 1018.3
20260831073840 73 100 0.0 0.0 0.00 0.00 0.00 88 1018.3
20260831073338 73 102 0.0 0.0 0.00 0.00 0.00 89 1018.3
20260831072834 73 97 0.0 0.0 0.00 0.00 0.00 88 1018.1
20260831072329 73 100 0.0 0.0 0.00 0.00 0.00 88 1018.3
20260831071826 73 109 0.0 0.0 0.00 0.00 0.00 88 1018.5
20260831071324 73 103 0.0 0.0 0.00 0.00 0.00 88 1018.4
20260831070820 73 103 0.0 0.0 0.00 0.00 0.00 88 1018.5
20260831070318 73 102 0.0 0.0 0.00 0.00 0.00 88 1018.6
20260831065818 73 104 0.0 0.0 0.00 0.00 0.00 88 1018.8
20260831065316 73 107 0.0 0.0 0.00 0.00 0.00 88 1018.6
20260831064811 73 114 0.0 0.0 0.00 0.00 0.00 88 1018.6
20260831064306 73 102 0.0 0.0 0.00 0.00 0.00 88 1018.7
20260831063802 72 105 0.0 0.0 0.00 0.00 0.00 88 1018.7
20260831063257 72 101 0.0 0.0 0.00 0.00 0.00 89 1018.7
20260831062757 72 100 0.0 0.0 0.00 0.00 0.00 89 1018.4
20260831062252 72 112 0.0 0.0 0.00 0.00 0.00 89 1018.4
20260831061751 72 107 0.0 0.0 0.00 0.00 0.00 89 1018.5
20260831061246 72 99 0.0 0.0 0.00 0.00 0.00 89 1018.6
20260831060742 72 51 0.0 0.0 0.00 0.00 0.00 89 1018.7
20260831060242 72 107 0.0 0.0 0.00 0.00 0.00 89 1018.8
20260831055741 72 103 0.0 0.0 0.00 0.00 0.00 89 1018.8
20260831055241 72 105 0.0 0.0 0.00 0.00 0.00 89 1018.7
20260831054736 72 99 0.0 0.0 0.00 0.00 0.00 90 1018.7
20260831054232 72 95 0.0 0.0 0.00 0.00 0.00 90 1018.8
20260831053730 72 93 0.0 0.0 0.00 0.00 0.00 90 1018.8
20260831053230 72 100 0.0 0.0 0.00 0.00 0.00 90 1018.7
20260831052730 71 350 0.0 0.9 0.00 0.00 0.00 91 1018.7
20260831052229 71 99 0.0 0.0 0.00 0.00 0.00 91 1018.7
20260831051727 71 101 0.0 0.0 0.00 0.00 0.00 91 1018.9
20260831051226 71 102 0.0 0.0 0.00 0.00 0.00 91 1018.9
20260831050721 71 101 0.0 0.0 0.00 0.00 0.00 91 1019.0
20260831050220 71 101 0.0 0.0 0.00 0.00 0.00 91 1019.1
20260831045714 71 100 0.0 0.0 0.00 0.00 0.00 91 1019.4
20260831045210 71 101 0.0 0.0 0.00 0.00 0.00 91 1019.3
20260831044710 71 100 0.0 0.0 0.00 0.00 0.00 91 1019.0
20260831044205 71 94 0.0 0.0 0.00 0.00 0.00 91 1019.1
20260831043701 71 95 0.0 0.0 0.00 0.00 0.00 91 1019.1
20260831043155 71 104 0.0 0.0 0.00 0.00 0.00 91 1019.2
20260831042655 71 97 0.0 0.0 0.00 0.00 0.00 90 1019.1
20260831042150 72 104 0.0 0.0 0.00 0.00 0.00 90 1019.0
20260831041645 72 102 0.0 0.0 0.00 0.00 0.00 90 1019.0
20260831041144 72 97 0.0 0.0 0.00 0.00 0.00 89 1019.1
20260831040640 72 104 0.0 0.9 0.00 0.00 0.00 89 1018.9
20260831040138 72 102 0.0 0.0 0.00 0.00 0.00 89 1018.8
20260831035638 72 107 0.0 0.0 0.00 0.10 0.10 89 1018.8
20260831035138 72 103 0.0 0.0 0.00 0.10 0.10 89 1018.8
20260831034636 72 107 0.0 0.0 0.00 0.10 0.10 89 1018.7
20260831034132 72 105 0.0 0.9 0.00 0.10 0.10 88 1018.8
20260831033628 72 105 0.9 0.9 0.00 0.10 0.10 89 1018.9
20260831033123 72 221 0.9 2.6 0.00 0.10 0.10 89 1018.6
20260831032622 72 131 0.9 1.7 0.00 0.10 0.10 89 1018.7
20260831032118 72 103 0.0 0.9 0.00 0.10 0.10 89 1018.7
20260831031618 72 104 0.0 0.9 0.00 0.10 0.10 89 1018.7
20260831031117 72 113 0.9 0.9 0.00 0.10 0.10 89 1018.9
20260831030617 72 101 0.9 0.9 0.00 0.10 0.10 89 1019.1
20260831030116 72 103 0.9 0.9 0.00 0.10 0.10 90 1019.2
20260831025614 71 100 0.0 0.9 0.00 0.10 0.10 90 1019.2
20260831025109 72 106 0.0 0.0 0.00 0.10 0.10 90 1019.2
20260831024606 72 100 0.0 0.0 0.00 0.10 0.10 90 1019.2
20260831024104 72 103 0.0 0.0 0.00 0.10 0.10 89 1019.3
20260831023603 72 104 0.0 0.0 0.00 0.10 0.10 89 1019.0
20260831023102 72 104 0.0 0.0 0.00 0.10 0.10 89 1019.2
20260831022557 72 103 0.0 0.0 0.00 0.10 0.10 88 1019.1
20260831022052 72 97 0.0 0.0 0.00 0.10 0.10 88 1018.9
20260831021551 72 105 0.0 0.0 0.00 0.10 0.10 88 1018.9
20260831021047 72 102 0.0 0.0 0.00 0.10 0.10 88 1019.1
20260831020542 72 112 1.7 1.7 0.00 0.10 0.10 88 1019.2
20260831020037 72 102 1.7 1.7 0.00 0.10 0.10 88 1019.2
20260831015532 72 109 0.9 0.9 0.00 0.10 0.10 87 1019.1
20260831015028 72 175 0.0 1.7 0.00 0.10 0.10 88 1019.1
20260831014528 72 107 0.0 0.0 0.00 0.10 0.10 88 1019.3
20260831014024 72 118 0.9 0.9 0.00 0.10 0.10 88 1019.1
20260831013519 72 122 0.9 1.7 0.00 0.10 0.10 88 1019.1
20260831013014 72 105 0.0 0.0 0.00 0.10 0.10 88 1019.2
20260831012509 72 116 1.7 1.7 0.00 0.10 0.10 88 1019.1
20260831012008 72 136 1.7 2.6 0.00 0.10 0.10 87 1019.1
20260831011503 71 113 0.9 0.9 0.00 0.10 0.10 87 1019.0
20260831010959 71 104 0.0 0.0 0.00 0.10 0.10 87 1019.2
20260831010458 71 139 1.7 1.7 0.00 0.10 0.10 87 1019.0
20260831005954 71 124 1.7 1.7 0.00 0.10 0.10 86 1019.1
20260831005450 71 106 0.9 0.9 0.00 0.10 0.10 86 1019.1
20260831004949 71 118 0.0 0.9 0.00 0.10 0.10 86 1019.2
20260831004446 71 123 0.9 0.9 0.00 0.10 0.10 86 1019.4
20260831003942 71 107 0.9 0.9 0.00 0.10 0.10 85 1019.2
20260831003437 71 116 0.0 0.9 0.00 0.10 0.10 85 1019.3
20260831002937 71 117 0.9 0.9 0.00 0.10 0.10 85 1019.3
20260831002436 70 117 0.9 0.9 0.00 0.10 0.10 85 1019.3
20260831001932 70 109 0.9 0.9 0.00 0.10 0.10 85 1019.5
20260831001426 71 124 0.0 0.0 0.00 0.10 0.10 85 1019.5
20260831000924 71 117 0.0 0.0 0.00 0.10 0.10 85 1019.3
20260831000419 71 105 0.0 0.0 0.00 0.10 0.10 85 1019.4
20260830235917 71 108 0.0 0.0 0.00 0.10 0.10 85 1019.6
20260830235413 71 115 0.9 0.9 0.00 0.10 0.10 84 1019.4
20260830234908 71 113 0.0 0.0 0.00 0.10 0.10 84 1019.9
20260830234403 71 105 0.0 0.0 0.00 0.10 0.10 83 1019.6
20260830233900 71 102 0.0 0.0 0.00 0.10 0.10 82 1019.4
20260830233400 72 112 0.9 1.7 0.07 0.10 0.10 81 1019.6
20260830232855 73 106 0.0 0.0 0.12 0.10 0.10 80 1019.7
20260830232351 73 112 0.9 1.7 0.05 0.09 0.09 79 1019.9
20260830231848 74 106 0.9 0.9 0.00 0.08 0.08 81 1020.1
20260830231342 74 100 0.9 0.9 0.00 0.08 0.08 79 1020.2
20260830230842 73 89 0.9 0.9 0.00 0.08 0.08 81 1020.2
20260830230338 74 19 0.0 1.7 0.00 0.08 0.08 89 1020.4
20260830225837 74 100 0.0 0.0 0.00 0.08 0.08 88 1020.3
20260830225332 74 100 0.0 0.0 0.00 0.08 0.08 87 1020.2
20260830224827 74 103 0.0 0.0 0.00 0.08 0.08 87 1020.2
20260830224321 75 94 0.0 0.0 0.00 0.08 0.08 86 1020.2
20260830223818 75 93 0.0 0.0 0.00 0.08 0.08 86 1020.2
20260830223314 75 93 0.0 0.0 0.00 0.08 0.08 86 1020.0